Skip Page Navigation
NASA JPL Caltech
NASA Logo - Jet Propulsion Laboratory + View the NASA Portal
+ Near-Earth Object (NEO) Program
Search JPL
JPL Home Earth Solar System Stars & Galaxies Technology
JPL Solar System Dynamics
BODIES ORBITS EPHEMERIDES TOOLS PHYSICAL DATA DISCOVERY FAQ SITE MAP
JPL Small-Body Database Browser
Search: [ help ]  
10 Hygiea
Classification: Main-belt Asteroid          SPK-ID: 2000010
Ephemeris | Orbit Diagram | Orbital Elements | Physical Parameters | Discovery Circumstances | Close-Approach Data ]

[ show orbit diagram ]
Orbital Elements at Epoch 2456400.5 (2013-Apr-18.0) TDB
Reference: JPL 84 (heliocentric ecliptic J2000)
 Element Value Uncertainty (1-sigma)   Units 
e .1161087267838487 1.6632e-08  
a 3.13703482450848 6.9677e-09 AU
q 2.772797705158207 5.2478e-08 AU
i 3.841901468143661 2.2376e-06 deg
node 283.4181407681835 2.9549e-05 deg
peri 312.7581368994616 3.1195e-05 deg
M 121.9566241912926 1.1053e-05 deg
tp 2455712.987924857285
(2011-May-31.48792486)
6.1403e-05 JED
period 2029.445704098527
5.56
6.7614e-06
1.851e-08
d
yr
n .1773883377480704 5.91e-10 deg/d
Q 3.501271943858755 7.7767e-09 AU
  Orbit Determination Parameters
   # obs. used (total)      2837  
   data-arc span      59732 days (163.54 yr)  
   first obs. used      1849-05-26  
   last obs. used      2012-12-09  
   planetary ephem.      DE405  
   SB-pert. ephem.      SB405-CPV-2  
   condition code      0  
   fit RMS      .60589  
   data source      ORB  
   producer      Otto Matic  
   solution date      2013-Mar-29 14:16:43  

Additional Information
 Earth MOID = 1.76315 AU 
 T_jup = 3.198 
[ show covariance matrix ]

Ephemeris | Orbit Diagram | Orbital Elements | Physical Parameters | Discovery Circumstances | Close-Approach Data ]

Physical Parameter Table
Parameter Symbol Value Units Sigma Reference Notes
absolute magnitude H 5.43 mag n/a IRAS-A-FPA-3-RDR-IMPS-V6.0 IRAS observations used: 22
diameter diameter 407.12 km 6.8 IRAS-A-FPA-3-RDR-IMPS-V6.0 IRAS observations used: 22
GM GM 7. km^3/s^2 n/a Scholl et al., A&A, v.179, p.311, 1987  
rotation period rot_per 27.623 h n/a Asteroid Lightcurve DataBase (Rev. 2013-May-01) Published Reference List:
[Michalowski, T.; Velichko, F.P.; Lindgren, M.; Oja, T.; et al. (1991) Astron. Astrophys. Suppl. Ser. 91, 53-59.]
[Lagerkvist, C.-I.; Oja, T.; Pohjolainen, S.; Erikson, A. (1992) Minor Planet Bul. 19, 29-30.]
[Erikson, A.; Magnusson, P. (1993) Icarus 103, 62-66.]
[Michalowski, T. (1993) Icarus 106, 563-572.]
[Michalowski, T.; Mohamed, R.A.; Velichko, F.P. (1995) Minor Planet Bul. 22, 35-36.]
[Lopez-Gonzalez, M.J.; Rodriguez, E. (2000) Astron. Astrophys. Suppl. Ser. 145, 255-261.]
[Kaasalainen, M.; Torppa, J.; Piironen, J. (2002) Icarus 159, 369-395.]
[Hanus, J.; Durech, J.; Broz, M.; Warner, B.D.; et al. (2011) Astron. Astrophys. 530, A134.]
[Durech, J.; Kaasalainen, M.; Herald, D.; Dunham, D.; et al. (2011) Icarus 214, 652-670.]
geometric albedo albedo 0.0717   0.002 IRAS-A-FPA-3-RDR-IMPS-V6.0 IRAS observations used: 22
B-V BV .696 mag .020 EAR-A-5-DDR-UBV-MEAN-VALUES-V1.1 #obs=11; phase (min.=4.77, mean=10.97, max.=18.25) deg.
U-B UB .351 mag .034 EAR-A-5-DDR-UBV-MEAN-VALUES-V1.1 #obs=11; phase (min.=4.77, mean=10.97, max.=18.25) deg.
Tholen spectral type spec_T C   n/a EAR-A-5-DDR-TAXONOMY-V4.0 used 7 color indices; used ground-based radiometric albedo
SMASSII spectral type spec_B C   n/a EAR-A-5-DDR-TAXONOMY-V4.0 based on a high-resolution spectrum by Xu et al. (1995) or Bus and Binzel (2002)

10 Hygiea          Discovered 1849-Apr-12 by De Gasparis, A. at Naples
Reference: DISCOVERY.DBLast Updated: 2003-08-29

[ show close-approach data ]
Alternate Designations
 A900 GA 
Ephemeris | Orbit Diagram | Orbital Elements | Physical Parameters | Discovery Circumstances | Close-Approach Data ]
ABOUT SSD CREDITS/AWARDS PRIVACY/COPYRIGHT GLOSSARY LINKS
FirstGov 2013-May-22 05:01 UT
(server date/time)  
NASA Home Page
Site Manager:   Donald K. Yeomans
Webmaster  Alan B. Chamberlin